Regional Weather Roundup
Issued by NWS

Home | Current Version | Previous Version | Graphics & Text | Print | Product List | Glossary On
Versions: 1 2 3 4 5 6 7 8 9 10 11 12 13 14 15 16 17 18 19 20 21 22 23 24 25 26 27 28 29 30 31 32 33 34 35 36 37 38 39 40 41 42 43 44 45 46 47 48 49 50
976
ASUS44 KJAN 021010
RWRMS

MISSISSIPPI HOURLY WEATHER ROUNDUP
NATIONAL WEATHER SERVICE JACKSON MS
500 AM CDT THU OCT 02 2014

NOTE: "FAIR: INDICATES FEW OR NO CLOUDS BELOW 12,000 FEET WITH NO
SIGNIFICANT WEATHER AND/OR OBSTRUCTIONS TO VISIBILITY.

MSZ001>002-007>008-010>013-018>021-025>028-034>036-021100-
NORTHWEST MISSISSIPPI

CITY           SKY/WX    TMP DP  RH WIND       PRES   REMARKS
CLARKSDALE     MOCLDY    73  70  88 SE8       29.92R
CLEVELAND      CLOUDY    76  73  90 S9        29.90S
GREENWOOD      MOCLDY    73  69  87 S8        29.93R
GREENVILLE     CLOUDY    77  72  84 S10       29.90R
GRENADA        CLOUDY    70  66  88 CALM      29.94S
OLIVE BRANCH   CLEAR     68  68 100 S7        29.93R
OXFORD         FAIR      66  63  88 SE7       29.96S
TUNICA         MOSUNNY   70  64  83 SE6       29.91S
$$

MSZ003>006-009-014>017-022>024-029>033-037>039-021100-
NORTHEAST MISSISSIPPI

CITY           SKY/WX    TMP DP  RH WIND       PRES   REMARKS
COLUMBUS AFB   CLEAR     64  61  91 SE7       29.98R
CORINTH          N/A     66  61  82 S5        29.96R
GOLDN TRIANGLE CLOUDY    68  61  77 SE5       29.97R
STARKVILLE     CLOUDY    68  64  88 CALM      29.96S
TUPELO         CLEAR     68  62  81 S5        29.96S
$$

MSZ040-058-021100-
CENTRAL MISSISSIPPI

CITY           SKY/WX    TMP DP  RH WIND       PRES   REMARKS
JACKSON INTL   CLOUDY    76  72  87 S7        29.95R
JACKSON HAWKNS CLOUDY    76  72  87 S7        29.95S
MERIDIAN KEY   CLOUDY    72  71  97 S8        29.98R FOG
MERIDIAN NAS   MOCLDY    72  70  93 S5        29.98S
RAYMOND        PTSUNNY   75  70  83 MISG      29.94S
VICKSBURG      CLOUDY    77  73  87 S7        29.92R
$$

MSZ059>079-021100-
SOUTH MISSISSIPPI

CITY           SKY/WX    TMP DP  RH WIND       PRES   REMARKS
BROOKHAVEN     CLOUDY    75  75 100 S3        29.96S
COLUMBIA       CLOUDY    75  73  94 SE3       29.94S
HATTIESBURG    CLOUDY    76  73  91 SE6       29.97S
MCCOMB         CLOUDY    76  74  93 S7        29.95R
NATCHEZ        CLOUDY    75  73  94 S8        29.93S
PINE BELT      MOCLDY    73  70  88 SE5       29.98R
$$

MSZ080>082-021100-
COASTAL MISSISSIPPI

CITY           SKY/WX    TMP DP  RH WIND       PRES   REMARKS
BILOXI         CLOUDY    80  76  87 S6        29.96R
PASCAGOULA     CLOUDY    74  73  97 CALM      29.96S
GULFPORT       MOCLDY    79  75  87 SE8       29.95S
$$



USA.gov is the U.S. government's official web portal to all federal, state and local government web resources and services.